一网星座-0256星 (ONEWEB-0256 )

导读

ONEWEB-0256是英国一网(OneWeb)公司低轨卫星互联网星座的一员,于2021年7月1日发射。该卫星重约147.5kg,配备Ku/Ka波段天线与氙气离子电推进系统,入轨后将逐步升轨至1200公里近地轨道工作。 它属于OneWeb首批648颗卫星组网规划,旨在为全球提供高速低延迟宽带服务,覆盖航空、海事、偏远地区联网及应急通信等场景,助力缩小全球数字鸿沟,推进全球无缝互联。

Basic Information
目录编号:
48974
目录名称:
ONEWEB-0256
国际标识:
2021-060H
轨道中心:
EARTH
卫星名称:
一网星座-0256星
卫星全名:
一网星座-0256星 (ONEWEB-0256 )
卫星状态:
在轨 (已飞行1898 天)
发射日期:
2021-07-01 UTC
国别 :
英国 (GB)
星等 :
--
This satellite is enrolled in the Space Conjunction Data Service (SCDS) and the current flight risk assessment level is: No High Risk
Orbit Information
数据来源 国际轨道数据 AOE轨道数据
星历时间 2026-09-11T03:04:38+0800
22小时前
查看轨道信息
2026-09-10T06:00:00+0800
1天前
查看轨道信息
半长轴 7575.896km 7575.878km
偏心率 0.0002134 0.0002879
轨道倾角 87.914° 87.912°
近地点辐角 84.139° 61.513°
升交点赤经 211.781° 211.952°
平近点角 275.999° 98.506°
近地点 1196.142km 1195.559km
远地点 1199.376km 1199.923km
周期 109.373分钟 109.373分钟
每日圈数 13.165937 13.165985
Detailed Information
平衡模式:
三轴稳定
覆盖范围:
全球
运营商:
一网卫星公司
运营商所在国:
英国
制造商(研发单位):
一网卫星公司
制造商所在国:
英国
使用方式:
暂无
Satellite Introduction
OneWeb卫星网络由648颗重约125公斤的微型卫星组成,运行在1200公里的轨道上。 每颗卫星都能够提供至少每秒8千兆位的吞吐量,以使用其高吞吐量的Ku频段有效载荷为家庭和移动平台提供互联网接入。该卫星仍在工作。
2D Orbit Map
3D Orbit Map
Orbit Altitude Analysis Chart
Orbit Inclination Analysis Chart
Orbit Comprehensive Analysis Chart
View Comprehensive Chart
Conjunction Data List
Event ID Objects TCA Miss Dist (km) Collision Risk Probability Collision Risk Index (CRI) Action
CDM_260913-165502-131904-897422
2026-09-13T
16:55:53+0000
2.636 km
极远距离
1.562827E-6 低风险 0.39
Miss Distance Evolution Trend with All Objects
Collision Probability Evolution Trend with All Objects